Other Public Products
Issued by NWS Charleston, SC

Current Version | Previous Version | Graphics & Text | Print | Product List | Glossary On
Versions: 1 2 3 4 5 6 7 8 9 10 11 12 13 14 15 16 17 18 19 20 21 22 23 24 25 26 27 28 29 30 31 32 33 34 35 36 37 38 39 40 41 42 43 44 45 46 47 48 49 50
190
FPUS82 KCHS 262227
OPUCHS

TEST...KCHS/KSAV Gateway Observations...TEST
National Weather Service Charleston SC
600 PM EDT SUN MAR 26 2017

NOTE: "fair" indicates few or no clouds below 12,000 feet with no
significant weather and/or obstructions to visibility.

SCZ050-WAZ558-NCZ071-TXZ119-213-PAZ071-DCZ001-FLZ074-172-MI076-
NYZ176-178-MAZ016-IL014-TNZ027-NJZ106-GAZ044-MD014-262300-

...Gateway Observations for Charleston International...

CITY           SKY/WX    TMP DP  RH WIND       PRES   REMARKS
Chas Airport   MOSUNNY   75  55  49 S15       30.14S
Seattle        LGT RAIN  46  45  96 CALM      29.77S FOG
Charlotte      PTSUNNY   71  58  63 SE10      30.10F
Dallas DFW     CLOUDY    82  61  48 S15       29.73F
Dallas Love    CLOUDY    83  58  42 S15G23    29.75F
Philladelphia  CLOUDY    43  39  86 E15       30.33F
Wash National  CLOUDY    49  46  90 E12       30.25F
Baltimore      DRIZZLE   47  46  97 E12       30.27R FOG
Miami          PTSUNNY   78  62  57 E15       30.06S
Detroit        CLOUDY    52  50  93 E5        29.90F FOG
Newark         CLOUDY    43  34  70 E7        30.38F
Laguardia      CLOUDY    43  35  73 NE12      30.39F
J F K          CLOUDY    41  37  86 E10       30.39F
Boston Logan   CLOUDY    37  29  72 E12       30.48F WCI  29
Ft. Lauderdale MOSUNNY   77  62  59 E15       30.06S
Chicago O`Hare CLOUDY    59  51  75 SW9       29.81R
Chicago Midway CLOUDY    59  51  75 SW10      29.81S
Houston Bush   MOSUNNY   82  62  50 S22G28    29.86S
Houston Hobby  PTSUNNY   79  66  64 S15G24    29.86F
Nashville      PTSUNNY   74  52  46 S16       29.95F
Atlanta        MOSUNNY   77  53  43 SW12      30.04F

$$

GAZ044-118-TXZ119-213-NCZ071-DCZ001-MDZ014-506-PAZ021-071-NJZ106-
NYZ176-178-MAZ106-OHZ011-021-055-MIZ076-KYZ091-ILZ014-INZ047-
MNZ060-ONZ431-262300-

...Gateway Observations for Savannah International...

CITY           SKY/WX    TMP DP  RH WIND       PRES   REMARKS
Savannah Arpt  PTSUNNY   73  57  57 S16       30.12F
Atlanta        MOSUNNY   77  53  43 SW12      30.04F
Charlotte      PTSUNNY   71  58  63 SE10      30.10F
Dallas DFW     CLOUDY    82  61  48 S15       29.73F
Houston Bush   MOSUNNY   82  62  50 S22G28    29.86S
Wash National  CLOUDY    49  46  90 E12       30.25F
Wash Dulles    CLOUDY    48  43  82 E8        30.23F
Baltimore      DRIZZLE   47  46  97 E12       30.27R FOG
Philadelphia   CLOUDY    43  39  86 E15       30.33F
Newark         CLOUDY    43  34  70 E7        30.38F
Laguardia      CLOUDY    43  35  73 NE12      30.39F
J F K          CLOUDY    41  37  86 E10       30.39F
Boston         CLOUDY    37  29  72 E12       30.48F WCI  29
Pittsburg      PTSUNNY   61  53  75 SE14      29.97F
Akron          LGT RAIN  60  54  80 SW15G25   29.94S
Cleveland      LGT RAIN  61  52  72 SW6       29.94R
Cincinnati     LGT RAIN  57  55  93 W6        29.90R
Columbus       MOSUNNY   64  57  79 S13       29.91F
Detroit        CLOUDY    52  50  93 E5        29.90F FOG
Chicago O`Hare CLOUDY    59  51  75 SW9       29.81R
Minneapolis    CLOUDY    44  36  73 N7        29.90S
Indianapolis   CLOUDY    60  55  83 S12       29.86S
Toronto Canada CLOUDY    41  36  81 E13       30.02F

$$




USA.gov is the U.S. government's official web portal to all federal, state and local government web resources and services.